This is the latest recevied weather packets stored in our database for station/object PY2UEP-1. If no packets are shown the sender has not sent any weather packets the latest 10 day(s).
| Time | Temp. | Humidity | Pressure | Rain* | Wind** | Luminosity | Snow |
|---|---|---|---|---|---|---|---|
| 1777531837 | 17.78° C | 96% | 1019.1 hPa | 11.43 mm | - | - | - |
| 1777531537 | 17.78° C | 96% | 1019.2 hPa | 11.43 mm | - | - | - |
| 1777531237 | 17.78° C | 96% | 1019.3 hPa | 11.43 mm | - | - | - |
| 1777530937 | 17.78° C | 96% | 1019.3 hPa | 11.18 mm | - | - | - |
| 1777530637 | 17.78° C | 96% | 1019.3 hPa | 11.18 mm | - | - | - |
| 1777530337 | 17.22° C | 97% | 1019.3 hPa | 10.92 mm | - | - | - |
| 1777530037 | 17.22° C | 97% | 1019.3 hPa | 10.92 mm | - | - | - |
| 1777529737 | 17.22° C | 97% | 1019.2 hPa | 10.92 mm | - | - | - |
| 1777529437 | 17.22° C | 97% | 1019 hPa | 10.92 mm | - | - | - |
| 1777529137 | 17.22° C | 97% | 1018.9 hPa | 10.92 mm | - | - | - |
| 1777528837 | 17.22° C | 97% | 1019 hPa | 10.92 mm | - | - | - |
| 1777528537 | 17.22° C | 97% | 1019.2 hPa | 10.92 mm | - | - | - |
| 1777528237 | 17.22° C | 97% | 1019.3 hPa | 10.92 mm | - | - | - |
| 1777527937 | 17.22° C | 97% | 1019.3 hPa | 10.67 mm | - | - | - |
| 1777527637 | 17.22° C | 97% | 1019.6 hPa | 10.67 mm | - | - | - |
| 1777527337 | 17.22° C | 97% | 1019.8 hPa | 10.41 mm | - | - | - |
| 1777527037 | 17.22° C | 96% | 1019.9 hPa | 10.41 mm | - | - | - |
| 1777526737 | 17.22° C | 96% | 1019.8 hPa | 10.16 mm | - | - | - |
| 1777526437 | 17.22° C | 96% | 1019.9 hPa | 10.16 mm | - | - | - |
| 1777526137 | 16.67° C | 97% | 1019.9 hPa | 9.91 mm | - | - | - |
| 1777525837 | 16.67° C | 96% | 1020.1 hPa | 9.4 mm | - | - | - |
| 1777525537 | 16.67° C | 96% | 1020.2 hPa | 8.38 mm | - | - | - |
| 1777525237 | 16.67° C | 96% | 1020.6 hPa | 6.86 mm | - | - | - |
| 1777524937 | 16.67° C | 96% | 1020.5 hPa | 5.84 mm | - | - | - |
| 1777524637 | 16.67° C | 95% | 1020.3 hPa | 4.57 mm | - | - | - |
* Rain since midnight (hover to see other rain measurements)
** Current wind speed in m/s (hover to see current wind gust speed)